Retour au catalogue

STARLINK-31508

ActifCommunicationsVLEO
NORAD 59503·PAYLOAD·🇺🇸 United States

Lancé Apr 13, 2024 depuis Cape Canaveral Space Force Station

Loading…

Prochains Passages (prochaines 24 heures)

TLE

FraisSource: CelesTrak SupGP

Époque: Sep 15, 2026, 02:18 UTC

1 59503C 24071V   26258.09631944  .00029336  00000+0  10626-2 0  2582
2 59503  43.0023 350.4745 0001651 261.5387 264.5257 15.27563300    13

Suivez STARLINK-31508 en temps réel avec AllMySat

Download on the App Store